International Virtual Aviation Organisation

Eastern Europe and Northern Asia MCD

 

Карточка аэропорта UIII

Внимание!
Информация на этой странице в стадии наполнения.
Если вы не увидели какой-то информации, или заметили неточность - пожалуйста сообщите нам!
Спасибо!
Команда RU-STAFF
Название аэропортаИркутск
Название аэропорта (англ.)Irkutsk
Превышение1686 ft. (513.9 m.)
Координаты52°16.032', 104°23.7'
Высота перехода1100m
Эшелон переходаFL070
Коды ответчика3330-3347
Зона ОрВДИркутск РПИ (UIII)
Данные METARUIII 121130Z 29008MPS 9999 SCT050CB 04/M06 Q1024 R30/CLRD60 NOSIG RMK QFE723/0964
Проноз погоды (TAF)UIII 121100Z 1212/1312 30006MPS 9999 SCT045CB BECMG 1215/1216 VRB01MPS BECMG 1221/1222 16006MPS
NOTAMshow/hide NOTAM
AWOS   TABLE

Информация о ВПП

ВПП Длина ВПП (м.) Покрытие Курс ВПП Частота ILS
123565Железобетон117111.3
303565Железобетон297110.3

Диспетчерские позиции

Позывной Наименование органа УВД Частота
UIII_APPИркутск-Подход125.2
UIII_FSSИркутск-Транзит128.5
UIII_GNDИркутск-Руление121.7
UIII_R_APPИркутск-Круг119.3
UIII_TWRИркутск-Вышка118.1



Спутниковое изображение